Regional Weather Roundup
Issued by NWS Albany, NY

Home | Current Version | Previous Version | Text Only | Print | Product List | Glossary On
Versions: 1 2 3 4 5 6 7 8 9 10 11 12 13 14 15 16 17 18 19 20 21 22 23 24 25 26 27 28 29 30 31 32 33 34 35 36 37 38 39 40 41 42 43 44 45 46 47 48 49 50
000
ASUS41 KALY 191110
RWRALY

NEW YORK STATE HOURLY WEATHER ROUNDUP
NATIONAL WEATHER SERVICE ALBANY NY
600 AM EST THU JAN 19 2017

NOTE: "FAIR" INDICATES FEW OR NO CLOUDS BELOW 12,000 FEET WITH NO
SIGNIFICANT WEATHER AND/OR NO OBSTRUCTIONS TO VISIBILITY.

NYZ032-033-038>043-046>054-057>066-NYZ062>081-082-084-191200-
EAST


CITY           SKY/WX    TMP DP  RH WIND       PRES   REMARKS
ALBANY         CLOUDY    36  34  92 CALM      30.02R
GLENS FALLS    CLOUDY    36  33  89 E3        29.98S FOG
POUGHKEEPSIE   CLOUDY    32  32 100 CALM      30.01R FOG
NEWBURGH       PTCLDY    34  34 100 W8        30.01R WCI  27
MONTGOMERY     CLOUDY    33  32  96 W6        30.00R FOG     WCI  28
WHITE PLAINS   CLOUDY    34  31  88 CALM      30.00R
ISLIP          MOCLDY    36  36 100 CALM      30.01F
NEW YORK CITY  CLOUDY    44  36  73 CALM      30.02S
CENTRAL PARK   PTCLDY    41  36  82 W5        30.04S
$$

NYZ005>009-017-018-044>046-055-056-191200-
CENTRAL


CITY           SKY/WX    TMP DP  RH WIND       PRES   REMARKS
FULTON         CLOUDY    37  35  92 W6        30.02R FOG     WCI  32
SYRACUSE       CLOUDY    37  35  92 W12       30.02R WCI  29
ROME           CLOUDY    35  35 100 W5        30.03R FOG     WCI  31
ELMIRA         CLOUDY    37  32  82 W3        30.01R
BINGHAMTON     CLOUDY    33  33 100 NW6       29.97R WCI  28
MONTICELLO     CLOUDY    34  34 100 W7        29.99R WCI  28
$$

NYZ026>034-041>043-087-191200-
NORTH


CITY           SKY/WX    TMP DP  RH WIND       PRES   REMARKS
WATERTOWN      CLOUDY    35  35 100 SW5       30.01R FOG     WCI  31
FORT DRUM      NOT AVBL
OGDENSBURG     CLOUDY    34  34  99 SW3       29.98R FOG
MASSENA        CLOUDY    35  35 100 SW8       29.99R WCI  29
SARANAC LAKE   CLOUDY    33  30  88 W8        29.90R WCI  26
PLATTSBURGH    CLOUDY    34  32  92 CALM      29.95R
$$

NYZ001>004-010>016-019>021-085-191200-
WEST


CITY           SKY/WX    TMP DP  RH WIND       PRES   REMARKS
NIAGARA FALLS  CLOUDY    36  31  82 W15       30.05R WCI  27
BUFFALO        CLOUDY    34  32  92 W18G25    30.04R WCI  23
DUNKIRK        CLOUDY    35  35 100 SW12      30.06R FOG     WCI  27
JAMESTOWN      CLOUDY    34  30  86 SW9       30.01S WCI  26
WELLSVILLE     CLOUDY    35  31  85 W9        29.99R WCI  28
ROCHESTER      CLOUDY    37  33  85 W15       30.04R WCI  28
PENN YAN       CLOUDY    38  30  73 NW6       30.02R WCI  33
$$

             KEY
       WCI = WIND CHILL INDEX
       VSB = VISIBILITY
       HX  = HEAT INDEX
$$



USA.gov is the U.S. government's official web portal to all federal, state and local government web resources and services.